Garden City, KS

4:55 PM CST on November 23, 2017 (GMT -0600)
Garden City Regional

Weather History for KGCK - July, 2013

Change the Weather History Date:

Monday, July 22, 2013

  Actual Average Record
Temperature  
Mean Temperature 87 °F 79 °F  
Max Temperature 104 °F 92 °F 104 °F (2013)
Min Temperature 70 °F 65 °F 52 °F (1989)
Degree Days  
Heating Degree Days 0 0  
Month to date heating degree days 0 0  
Since 1 June heating degree days 12 16  
Since 1 July heating degree days 0 0  
Cooling Degree Days 22 14  
Month to date cooling degree days 323 291  
Year to date cooling degree days 861 632  
Since 1 June cooling degree days 714 543  
Growing Degree Days 36 (Base 50)    
Moisture  
Dew Point 55 °F    
Average Humidity 41    
Maximum Humidity 66    
Minimum Humidity 15    
Precipitation  
Precipitation 0.00 in 0.09 in 1.58 in (1952)
Month to date precipitation 0.42 1.99  
Year to date precipitation 4.13 12.41  
Sea Level Pressure  
Sea Level Pressure 29.74 in    
Wind  
Wind Speed 12 mph (South)    
Max Wind Speed 29 mph    
Max Gust Speed 33 mph    
Visibility 10 miles    
Events      
T = Trace of Precipitation, MM = Missing Value Source: NWS Daily Summary

Daily Weather History Graph

Daily Weather History Graph

Search for Another Location

Airport or City:

Trip Planner

Search our weather history database for the weather conditions in past years. The results will help you decide how hot, cold, wet, or windy it might be!

Date:

Astronomy

Jul. 22, 2013 Rise Set
Actual Time 6:38 AM CDT 9:00 PM CDT
Civil Twilight 6:08 AM CDT 9:30 PM CDT
Nautical Twilight 5:31 AM CDT 10:06 PM CDT
Astronomical Twilight 4:50 AM CDT 10:47 PM CDT
Moon 8:49 PM CDT (7/22) 6:35 AM CDT (7/22)
Length of Visible Light 15h 22m
Length of Day
14h 22m
Full, 100% of the Moon is Illuminated
Jul 22
Full
Jul 22
Full
Jul 29
Last Quarter
Aug 6
New
Aug 14
First Quarter

Hourly Weather History & Observations

Time (CDT) Temp. Heat Index Dew Point Humidity Pressure Visibility Wind Dir Wind Speed Gust Speed Precip Events Conditions
12:54 AM 78.1 °F - 62.1 °F 58% 29.74 in 10.0 mi SW 5.8 mph - N/A   Clear
1:54 AM 73.9 °F - 61.0 °F 64% 29.74 in 10.0 mi SSW 4.6 mph - N/A   Clear
2:54 AM 73.9 °F - 59.0 °F 59% 29.73 in 10.0 mi SW 5.8 mph - N/A   Clear
3:54 AM 72.0 °F - 57.9 °F 61% 29.73 in 10.0 mi South 8.1 mph - N/A   Clear
4:54 AM 70.0 °F - 57.9 °F 65% 29.73 in 10.0 mi South 5.8 mph - N/A   Clear
5:54 AM 71.1 °F - 57.9 °F 63% 29.73 in 10.0 mi SSW 8.1 mph - N/A   Clear
6:54 AM 71.1 °F - 57.9 °F 63% 29.75 in 10.0 mi SSW 11.5 mph - N/A   Clear
7:54 AM 73.0 °F - 59.0 °F 61% 29.76 in 10.0 mi SW 8.1 mph - N/A   Clear
8:54 AM 78.1 °F - 57.9 °F 50% 29.80 in 10.0 mi NNE 15.0 mph - N/A   Clear
9:54 AM 82.0 °F 82.1 °F 59.0 °F 45% 29.77 in 10.0 mi Variable 4.6 mph - N/A   Clear
10:54 AM 84.9 °F 83.7 °F 55.9 °F 37% 29.80 in 10.0 mi Variable 3.5 mph - N/A   Clear
11:54 AM 90.0 °F 89.1 °F 59.0 °F 35% 29.76 in 10.0 mi SSE 11.5 mph 19.6 mph N/A   Clear
12:54 PM 96.1 °F 95.6 °F 59.0 °F 29% 29.75 in 10.0 mi East 10.4 mph 19.6 mph N/A   Clear
1:54 PM 100.9 °F - 51.1 °F 19% 29.73 in 10.0 mi South 9.2 mph 23.0 mph N/A   Clear
2:54 PM 102.9 °F - 48.0 °F 16% 29.71 in 10.0 mi South 16.1 mph 25.3 mph N/A   Clear
3:54 PM 102.9 °F - 46.0 °F 15% 29.71 in 10.0 mi SSW 12.7 mph 19.6 mph N/A   Clear
4:54 PM 99.0 °F - 51.1 °F 20% 29.71 in 10.0 mi South 13.8 mph - N/A   Partly Cloudy
5:54 PM 102.0 °F - 51.1 °F 18% 29.68 in 10.0 mi South 18.4 mph 26.5 mph N/A   Clear
6:54 PM 89.1 °F - 52.0 °F 28% 29.72 in 10.0 mi SW 20.7 mph 28.8 mph N/A   Partly Cloudy
7:54 PM 88.0 °F - 51.1 °F 28% 29.72 in 10.0 mi SSW 20.7 mph 29.9 mph N/A   Clear
8:54 PM 82.9 °F - 52.0 °F 34% 29.73 in 10.0 mi South 11.5 mph - N/A   Clear
9:54 PM 82.0 °F 81.2 °F 53.1 °F 37% 29.75 in 10.0 mi SE 17.3 mph 21.9 mph N/A   Clear
10:54 PM 79.0 °F - 55.0 °F 44% 29.78 in 10.0 mi SE 13.8 mph - N/A   Clear
11:54 PM 77.0 °F - 55.9 °F 48% 29.78 in 10.0 mi SSE 10.4 mph - N/A   Clear